Wetterdaten: Freitag, 28.02.2014
Datum Zeit Temperatur Luftfeuchte Luftdruck Regen Wind Richtung Richtung Taupunkt Windchill Windben
28.02.2014 00:00 1,2 C 88 % 1012,4 hPa 0,0 l/m 0,2 km/h (0 Bft) O-NO 67 -0,6 C 1,4 C 1,6 km/h (1 Bft)
28.02.2014 00:05 1,2 C 88 % 1012,4 hPa 0,0 l/m 0,2 km/h (0 Bft) O-NO 67 -0,6 C 1,3 C 0,0 km/h (0 Bft)
28.02.2014 00:08 1,1 C 88 % 1012,3 hPa 0,0 l/m 0,8 km/h (0 Bft) O-SO 112 -0,7 C 1,3 C 1,9 km/h (1 Bft)
28.02.2014 00:10 1,1 C 88 % 1012,3 hPa 0,0 l/m 0,8 km/h (0 Bft) O-SO 112 -0,7 C 1,3 C 1,9 km/h (1 Bft)
28.02.2014 00:15 1,1 C 88 % 1012,3 hPa 0,0 l/m 0,6 km/h (0 Bft) O-SO 112 -0,7 C 1,3 C 0,0 km/h (0 Bft)
28.02.2014 00:20 1,1 C 88 % 1012,3 hPa 0,0 l/m 0,0 km/h (0 Bft) O-SO 112 -0,7 C 1,3 C 0,0 km/h (0 Bft)
28.02.2014 00:25 1,2 C 88 % 1012,3 hPa 0,0 l/m 0,0 km/h (0 Bft) SO 135 -0,6 C 1,3 C 0,0 km/h (0 Bft)
28.02.2014 00:30 1,1 C 88 % 1012,4 hPa 0,0 l/m 0,0 km/h (0 Bft) N-NO 22 -0,7 C 1,3 C 3,4 km/h (1 Bft)
28.02.2014 00:35 1,3 C 89 % 1012,4 hPa 0,0 l/m 0,3 km/h (0 Bft) NO 45 -0,3 C 1,3 C 0,0 km/h (0 Bft)
28.02.2014 00:40 1,0 C 89 % 1012,4 hPa 0,0 l/m 1,1 km/h (1 Bft) O-SO 112 -0,6 C 1,2 C 4,3 km/h (1 Bft)
28.02.2014 00:45 1,0 C 89 % 1012,4 hPa 0,0 l/m 1,4 km/h (1 Bft) S-SO 157 -0,6 C 1,2 C 4,2 km/h (1 Bft)
28.02.2014 00:50 1,2 C 89 % 1012,2 hPa 0,0 l/m 3,1 km/h (1 Bft) S 180 -0,4 C 0,8 C 7,2 km/h (2 Bft)
28.02.2014 00:55 1,3 C 89 % 1012,2 hPa 0,0 l/m 4,7 km/h (1 Bft) S 180 -0,3 C 0,0 C 7,4 km/h (2 Bft)
28.02.2014 01:00 1,4 C 89 % 1012,2 hPa 0,0 l/m 5,5 km/h (1 Bft) S 180 -0,2 C -0,2 C 9,5 km/h (2 Bft)
28.02.2014 01:05 1,3 C 89 % 1012,2 hPa 0,0 l/m 4,0 km/h (1 Bft) S 180 -0,3 C 0,4 C 0,0 km/h (0 Bft)
28.02.2014 01:10 1,3 C 90 % 1012,4 hPa 0,0 l/m 4,0 km/h (1 Bft) S 180 -0,2 C 0,3 C 5,3 km/h (1 Bft)
28.02.2014 01:15 1,1 C 91 % 1012,4 hPa 0,0 l/m 5,3 km/h (1 Bft) S 180 -0,2 C -0,4 C 10,8 km/h (2 Bft)
28.02.2014 01:20 0,8 C 92 % 1012,4 hPa 0,0 l/m 6,4 km/h (2 Bft) S 180 -0,3 C -1,2 C 12,1 km/h (2 Bft)
28.02.2014 01:25 0,7 C 92 % 1012,4 hPa 0,0 l/m 6,3 km/h (2 Bft) S 180 -0,4 C -1,3 C 7,9 km/h (2 Bft)
28.02.2014 01:30 0,6 C 93 % 1012,5 hPa 0,0 l/m 5,6 km/h (1 Bft) SO 135 -0,4 C -1,2 C 6,4 km/h (2 Bft)
28.02.2014 01:35 0,6 C 93 % 1012,5 hPa 0,0 l/m 4,8 km/h (1 Bft) O 90 -0,4 C -0,9 C 6,0 km/h (2 Bft)
28.02.2014 01:40 0,5 C 93 % 1012,5 hPa 0,0 l/m 3,1 km/h (1 Bft) S 180 -0,5 C -0,1 C 2,1 km/h (1 Bft)
28.02.2014 01:45 0,3 C 93 % 1012,5 hPa 0,0 l/m 2,1 km/h (1 Bft) O-SO 112 -0,7 C 0,3 C 0,0 km/h (0 Bft)
28.02.2014 01:50 0,1 C 93 % 1012,0 hPa 0,0 l/m 1,8 km/h (1 Bft) O-SO 112 -0,9 C 0,3 C 3,4 km/h (1 Bft)
28.02.2014 01:55 0,1 C 94 % 1012,0 hPa 0,0 l/m 2,1 km/h (1 Bft) S 180 -0,7 C 0,2 C 3,5 km/h (1 Bft)
28.02.2014 02:00 0,2 C 94 % 1012,0 hPa 0,0 l/m 2,3 km/h (1 Bft) S-SO 157 -0,6 C 0,1 C 2,9 km/h (1 Bft)
28.02.2014 02:05 0,3 C 94 % 1012,0 hPa 0,0 l/m 2,6 km/h (1 Bft) O-SO 112 -0,5 C 0,1 C 5,6 km/h (1 Bft)
28.02.2014 02:10 0,4 C 94 % 1011,7 hPa 0,0 l/m 4,0 km/h (1 Bft) O-SO 112 -0,5 C -0,8 C 7,4 km/h (2 Bft)
28.02.2014 02:15 0,5 C 95 % 1011,7 hPa 0,0 l/m 4,7 km/h (1 Bft) O-NO 67 -0,2 C -1,1 C 7,2 km/h (2 Bft)
28.02.2014 02:20 0,9 C 95 % 1011,7 hPa 0,0 l/m 5,6 km/h (1 Bft) O-SO 112 0,2 C -1,3 C 6,4 km/h (2 Bft)
28.02.2014 02:25 1,1 C 95 % 1011,7 hPa 0,0 l/m 5,8 km/h (2 Bft) O-SO 112 0,4 C -1,1 C 7,1 km/h (2 Bft)
28.02.2014 02:30 1,3 C 95 % 1011,6 hPa 0,0 l/m 5,1 km/h (1 Bft) S-SO 157 0,6 C -0,7 C 4,8 km/h (1 Bft)
28.02.2014 02:35 1,3 C 95 % 1011,6 hPa 0,0 l/m 5,0 km/h (1 Bft) O-SO 112 0,6 C -0,4 C 7,1 km/h (2 Bft)
28.02.2014 02:40 1,3 C 95 % 1011,6 hPa 0,0 l/m 4,5 km/h (1 Bft) SO 135 0,6 C -0,1 C 4,5 km/h (1 Bft)
28.02.2014 02:45 1,2 C 95 % 1011,6 hPa 0,0 l/m 4,2 km/h (1 Bft) O-SO 112 0,5 C 0,2 C 6,8 km/h (2 Bft)
28.02.2014 02:50 1,1 C 95 % 1011,4 hPa 0,0 l/m 3,7 km/h (1 Bft) SO 135 0,4 C 0,4 C 4,5 km/h (1 Bft)
28.02.2014 02:55 1,1 C 95 % 1011,4 hPa 0,0 l/m 2,9 km/h (1 Bft) SO 135 0,4 C 0,9 C 2,1 km/h (1 Bft)
28.02.2014 03:00 1,1 C 95 % 1011,4 hPa 0,0 l/m 2,1 km/h (1 Bft) SO 135 0,4 C 1,1 C 4,3 km/h (1 Bft)
28.02.2014 03:05 1,1 C 95 % 1011,4 hPa 0,0 l/m 2,9 km/h (1 Bft) S 180 0,4 C 0,8 C 5,0 km/h (1 Bft)
28.02.2014 03:10 1,0 C 95 % 1011,4 hPa 0,0 l/m 3,9 km/h (1 Bft) S 180 0,3 C 0,2 C 5,1 km/h (1 Bft)
28.02.2014 03:15 1,0 C 95 % 1011,4 hPa 0,0 l/m 3,5 km/h (1 Bft) NO 45 0,3 C 0,4 C 5,0 km/h (1 Bft)
28.02.2014 03:20 1,0 C 95 % 1011,4 hPa 0,0 l/m 3,9 km/h (1 Bft) S 180 0,3 C 0,2 C 4,5 km/h (1 Bft)
28.02.2014 03:25 1,0 C 95 % 1011,4 hPa 0,0 l/m 4,0 km/h (1 Bft) S-SO 157 0,3 C 0,3 C 5,6 km/h (1 Bft)
28.02.2014 03:30 0,9 C 95 % 1011,3 hPa 0,0 l/m 4,2 km/h (1 Bft) S 180 0,2 C 0,1 C 3,2 km/h (1 Bft)
28.02.2014 03:35 0,9 C 95 % 1011,3 hPa 0,0 l/m 4,7 km/h (1 Bft) S-SO 157 0,2 C -0,1 C 5,6 km/h (1 Bft)
28.02.2014 03:40 1,0 C 95 % 1011,3 hPa 0,0 l/m 6,1 km/h (2 Bft) S 180 0,3 C -0,7 C 20,1 km/h (4 Bft)
28.02.2014 03:45 1,2 C 95 % 1011,3 hPa 0,0 l/m 8,5 km/h (2 Bft) SO 135 0,5 C -3,6 C 11,6 km/h (2 Bft)
28.02.2014 03:50 1,1 C 95 % 1011,3 hPa 0,0 l/m 10,5 km/h (2 Bft) S 180 0,4 C -6,0 C 21,6 km/h (4 Bft)
28.02.2014 03:55 1,2 C 95 % 1011,3 hPa 0,0 l/m 10,3 km/h (2 Bft) S-SW 202 0,5 C -5,8 C 11,4 km/h (2 Bft)
28.02.2014 04:00 1,1 C 95 % 1011,3 hPa 0,0 l/m 10,6 km/h (2 Bft) S-SO 157 0,4 C -6,1 C 12,6 km/h (3 Bft)
28.02.2014 04:05 1,2 C 95 % 1011,3 hPa 0,0 l/m 10,8 km/h (2 Bft) S 180 0,5 C -6,3 C 9,2 km/h (2 Bft)
28.02.2014 04:10 1,1 C 94 % 1011,0 hPa 0,0 l/m 12,7 km/h (3 Bft) S 180 0,2 C -8,3 C 25,9 km/h (4 Bft)
28.02.2014 04:15 1,1 C 94 % 1011,0 hPa 0,0 l/m 12,4 km/h (3 Bft) S-SW 202 0,2 C -8,0 C 9,2 km/h (2 Bft)
28.02.2014 04:20 1,0 C 94 % 1011,0 hPa 0,0 l/m 10,1 km/h (2 Bft) S 180 0,1 C -5,6 C 11,4 km/h (2 Bft)
28.02.2014 04:25 0,9 C 94 % 1011,0 hPa 0,0 l/m 8,9 km/h (2 Bft) S-SO 157 0,0 C -4,2 C 10,1 km/h (2 Bft)
28.02.2014 04:30 0,9 C 94 % 1011,0 hPa 0,0 l/m 8,4 km/h (2 Bft) S-SO 157 0,0 C -3,5 C 4,8 km/h (1 Bft)
28.02.2014 04:35 1,0 C 94 % 1011,0 hPa 0,0 l/m 8,0 km/h (2 Bft) S-SO 157 0,1 C -3,1 C 9,2 km/h (2 Bft)
28.02.2014 04:40 0,9 C 94 % 1011,0 hPa 0,0 l/m 6,6 km/h (2 Bft) S 180 0,0 C -1,5 C 5,0 km/h (1 Bft)
28.02.2014 04:45 0,9 C 94 % 1011,0 hPa 0,0 l/m 6,6 km/h (2 Bft) O-SO 112 0,0 C -1,6 C 7,2 km/h (2 Bft)
28.02.2014 04:50 0,6 C 94 % 1010,8 hPa 0,0 l/m 6,3 km/h (2 Bft) S 180 -0,3 C -1,3 C 6,9 km/h (2 Bft)
28.02.2014 04:55 0,6 C 94 % 1010,8 hPa 0,0 l/m 6,6 km/h (2 Bft) S 180 -0,3 C -1,6 C 9,2 km/h (2 Bft)
28.02.2014 05:00 0,5 C 94 % 1010,8 hPa 0,0 l/m 7,2 km/h (2 Bft) O-SO 112 -0,4 C -2,6 C 6,1 km/h (2 Bft)
28.02.2014 05:05 0,6 C 94 % 1010,8 hPa 0,0 l/m 6,4 km/h (2 Bft) SW 225 -0,3 C -1,5 C 6,4 km/h (2 Bft)
28.02.2014 05:08 0,5 C 94 % 1010,5 hPa 0,0 l/m 5,0 km/h (1 Bft) SO 135 -0,4 C -1,2 C 6,1 km/h (2 Bft)
28.02.2014 05:10 0,5 C 94 % 1010,5 hPa 0,0 l/m 5,0 km/h (1 Bft) SO 135 -0,4 C -1,2 C 6,1 km/h (2 Bft)
28.02.2014 05:15 0,5 C 95 % 1010,5 hPa 0,0 l/m 5,1 km/h (1 Bft) O-SO 112 -0,2 C -1,3 C 7,6 km/h (2 Bft)
28.02.2014 05:20 0,4 C 95 % 1010,5 hPa 0,0 l/m 4,5 km/h (1 Bft) SO 135 -0,3 C -1,1 C 6,6 km/h (2 Bft)
28.02.2014 05:25 0,3 C 95 % 1010,5 hPa 0,0 l/m 4,7 km/h (1 Bft) SO 135 -0,4 C -1,1 C 5,0 km/h (1 Bft)
28.02.2014 05:30 0,1 C 95 % 1010,2 hPa 0,0 l/m 3,9 km/h (1 Bft) SO 135 -0,6 C -0,9 C 4,2 km/h (1 Bft)
28.02.2014 05:35 -0,1 C 94 % 1010,2 hPa 0,0 l/m 2,7 km/h (1 Bft) SO 135 -0,9 C -0,4 C 2,1 km/h (1 Bft)
28.02.2014 05:40 -0,2 C 95 % 1010,2 hPa 0,0 l/m 3,2 km/h (1 Bft) SO 135 -0,9 C -0,9 C 4,5 km/h (1 Bft)
28.02.2014 05:45 -0,1 C 95 % 1010,2 hPa 0,0 l/m 4,0 km/h (1 Bft) SO 135 -0,8 C -1,6 C 7,2 km/h (2 Bft)
28.02.2014 05:50 -0,3 C 95 % 1010,2 hPa 0,0 l/m 4,2 km/h (1 Bft) SO 135 -1,0 C -1,7 C 6,3 km/h (2 Bft)
28.02.2014 05:55 -0,5 C 95 % 1010,2 hPa 0,0 l/m 3,4 km/h (1 Bft) SO 135 -1,2 C -1,5 C 3,4 km/h (1 Bft)
28.02.2014 06:00 -0,5 C 95 % 1010,2 hPa 0,0 l/m 1,8 km/h (1 Bft) SO 135 -1,2 C -0,9 C 0,0 km/h (0 Bft)
28.02.2014 06:05 -0,7 C 95 % 1010,2 hPa 0,0 l/m 1,1 km/h (1 Bft) SO 135 -1,4 C -1,1 C 0,0 km/h (0 Bft)
28.02.2014 06:10 -1,2 C 95 % 1009,9 hPa 0,0 l/m 0,2 km/h (0 Bft) SO 135 -1,9 C -1,6 C 1,9 km/h (1 Bft)
28.02.2014 06:15 -0,9 C 95 % 1009,9 hPa 0,0 l/m 0,6 km/h (0 Bft) SO 135 -1,6 C -1,7 C 2,6 km/h (1 Bft)
28.02.2014 06:20 -0,9 C 95 % 1009,9 hPa 0,0 l/m 1,6 km/h (1 Bft) SO 135 -1,6 C -1,6 C 3,7 km/h (1 Bft)
28.02.2014 06:25 -0,9 C 95 % 1009,9 hPa 0,0 l/m 1,9 km/h (1 Bft) SO 135 -1,6 C -1,5 C 0,0 km/h (0 Bft)
28.02.2014 06:30 -0,7 C 95 % 1009,6 hPa 0,0 l/m 2,6 km/h (1 Bft) SO 135 -1,4 C -1,8 C 3,7 km/h (1 Bft)
28.02.2014 06:35 -0,9 C 95 % 1009,6 hPa 0,0 l/m 1,9 km/h (1 Bft) SO 135 -1,6 C -1,4 C 0,0 km/h (0 Bft)
28.02.2014 06:40 -0,9 C 95 % 1009,6 hPa 0,0 l/m 2,6 km/h (1 Bft) SO 135 -1,6 C -1,8 C 4,3 km/h (1 Bft)
28.02.2014 06:45 -1,0 C 95 % 1009,6 hPa 0,0 l/m 3,1 km/h (1 Bft) SO 135 -1,7 C -1,9 C 2,6 km/h (1 Bft)
28.02.2014 06:50 -0,9 C 95 % 1009,6 hPa 0,0 l/m 2,9 km/h (1 Bft) SO 135 -1,6 C -1,9 C 6,9 km/h (2 Bft)
28.02.2014 06:55 -0,9 C 95 % 1009,6 hPa 0,0 l/m 3,5 km/h (1 Bft) SO 135 -1,6 C -2,2 C 4,8 km/h (1 Bft)
28.02.2014 07:00 -0,7 C 96 % 1009,6 hPa 0,0 l/m 4,5 km/h (1 Bft) SO 135 -1,3 C -2,5 C 4,8 km/h (1 Bft)
28.02.2014 07:05 -0,7 C 96 % 1009,6 hPa 0,0 l/m 4,0 km/h (1 Bft) SO 135 -1,3 C -2,3 C 3,4 km/h (1 Bft)
28.02.2014 07:10 -0,9 C 96 % 1009,4 hPa 0,0 l/m 2,4 km/h (1 Bft) SO 135 -1,5 C -1,2 C 1,9 km/h (1 Bft)
28.02.2014 07:15 -0,7 C 96 % 1009,4 hPa 0,0 l/m 2,3 km/h (1 Bft) SO 135 -1,3 C -1,1 C 6,4 km/h (2 Bft)
28.02.2014 07:20 -0,5 C 96 % 1009,4 hPa 0,0 l/m 2,1 km/h (1 Bft) SO 135 -1,1 C -0,8 C 0,0 km/h (0 Bft)
28.02.2014 07:25 -0,4 C 96 % 1009,4 hPa 0,0 l/m 1,3 km/h (1 Bft) SO 135 -1,0 C -0,6 C 0,0 km/h (0 Bft)
28.02.2014 07:30 -0,7 C 96 % 1009,2 hPa 0,0 l/m 1,0 km/h (0 Bft) SO 135 -1,3 C -0,7 C 6,6 km/h (2 Bft)
28.02.2014 07:35 0,1 C 96 % 1009,2 hPa 0,0 l/m 3,4 km/h (1 Bft) SO 135 -0,5 C -1,4 C 6,9 km/h (2 Bft)
28.02.2014 07:40 0,2 C 96 % 1009,2 hPa 0,0 l/m 5,1 km/h (1 Bft) SO 135 -0,4 C -1,9 C 5,8 km/h (2 Bft)
28.02.2014 07:45 0,1 C 96 % 1009,2 hPa 0,0 l/m 4,0 km/h (1 Bft) SO 135 -0,5 C -1,2 C 0,0 km/h (0 Bft)
28.02.2014 07:50 -0,3 C 95 % 1009,1 hPa 0,0 l/m 2,1 km/h (1 Bft) SO 135 -1,0 C -0,3 C 0,0 km/h (0 Bft)
28.02.2014 07:55 -0,3 C 95 % 1009,1 hPa 0,0 l/m 0,6 km/h (0 Bft) SO 135 -1,0 C -0,5 C 0,0 km/h (0 Bft)
28.02.2014 08:00 -0,6 C 95 % 1009,1 hPa 0,0 l/m 0,6 km/h (0 Bft) SO 135 -1,3 C -0,7 C 2,1 km/h (1 Bft)
28.02.2014 08:05 -0,8 C 95 % 1009,1 hPa 0,0 l/m 1,4 km/h (1 Bft) SO 135 -1,5 C -0,8 C 0,0 km/h (0 Bft)
28.02.2014 08:10 -0,9 C 95 % 1009,1 hPa 0,0 l/m 1,6 km/h (1 Bft) SO 135 -1,6 C -0,9 C 5,3 km/h (1 Bft)
28.02.2014 08:15 -0,7 C 95 % 1009,1 hPa 0,0 l/m 1,3 km/h (1 Bft) SO 135 -1,4 C -0,8 C 1,9 km/h (1 Bft)
28.02.2014 08:20 -0,5 C 95 % 1009,1 hPa 0,0 l/m 2,1 km/h (1 Bft) SO 135 -1,2 C -0,7 C 0,0 km/h (0 Bft)
28.02.2014 08:25 -0,3 C 95 % 1009,1 hPa 0,0 l/m 2,4 km/h (1 Bft) SO 135 -1,0 C -0,6 C 3,4 km/h (1 Bft)
28.02.2014 08:30 0,1 C 96 % 1009,1 hPa 0,0 l/m 1,3 km/h (1 Bft) SO 135 -0,5 C 0,1 C 0,0 km/h (0 Bft)
28.02.2014 08:35 0,2 C 96 % 1009,1 hPa 0,0 l/m 0,5 km/h (0 Bft) SO 135 -0,4 C 0,3 C 2,1 km/h (1 Bft)
28.02.2014 08:40 0,6 C 96 % 1009,1 hPa 0,0 l/m 0,5 km/h (0 Bft) SO 135 0,0 C 0,8 C 0,0 km/h (0 Bft)
28.02.2014 08:45 0,7 C 96 % 1009,1 hPa 0,0 l/m 0,5 km/h (0 Bft) SO 135 0,1 C 1,2 C 0,0 km/h (0 Bft)
28.02.2014 08:50 0,8 C 96 % 1009,1 hPa 0,0 l/m 0,5 km/h (0 Bft) SO 135 0,2 C 1,7 C 2,6 km/h (1 Bft)
28.02.2014 08:55 0,9 C 96 % 1009,1 hPa 0,0 l/m 0,5 km/h (0 Bft) SO 135 0,3 C 1,8 C 0,0 km/h (0 Bft)
28.02.2014 09:00 1,2 C 95 % 1009,1 hPa 0,0 l/m 0,8 km/h (0 Bft) S-SO 157 0,5 C 2,1 C 4,3 km/h (1 Bft)
28.02.2014 09:05 1,3 C 95 % 1009,1 hPa 0,0 l/m 2,3 km/h (1 Bft) SO 135 0,6 C 2,2 C 3,1 km/h (1 Bft)
28.02.2014 09:10 2,0 C 95 % 1009,2 hPa 0,0 l/m 3,1 km/h (1 Bft) O-SO 112 1,3 C 2,5 C 0,0 km/h (0 Bft)
28.02.2014 09:15 2,2 C 94 % 1009,2 hPa 0,0 l/m 1,4 km/h (1 Bft) O 90 1,3 C 4,0 C 0,0 km/h (0 Bft)
28.02.2014 09:20 2,3 C 94 % 1009,2 hPa 0,0 l/m 0,2 km/h (0 Bft) S 180 1,4 C 6,4 C 0,0 km/h (0 Bft)
28.02.2014 09:25 2,3 C 93 % 1009,2 hPa 0,0 l/m 0,6 km/h (0 Bft) NO 45 1,3 C 8,2 C 2,9 km/h (1 Bft)
28.02.2014 09:30 3,0 C 92 % 1009,0 hPa 0,0 l/m 1,3 km/h (1 Bft) S 180 1,8 C 9,2 C 2,9 km/h (1 Bft)
28.02.2014 09:35 3,5 C 92 % 1009,0 hPa 0,0 l/m 1,1 km/h (1 Bft) W-NW 292 2,3 C 9,2 C 2,1 km/h (1 Bft)
28.02.2014 09:40 4,0 C 87 % 1009,0 hPa 0,0 l/m 1,0 km/h (0 Bft) NO 45 2,0 C 8,7 C 2,6 km/h (1 Bft)
28.02.2014 09:45 4,7 C 85 % 1009,0 hPa 0,0 l/m 1,6 km/h (1 Bft) N 360 2,4 C 8,8 C 1,9 km/h (1 Bft)
28.02.2014 09:50 4,1 C 77 % 1008,6 hPa 0,0 l/m 2,3 km/h (1 Bft) NW 315 0,4 C 8,2 C 3,9 km/h (1 Bft)
28.02.2014 09:55 3,8 C 78 % 1008,6 hPa 0,0 l/m 3,2 km/h (1 Bft) N 360 0,3 C 7,5 C 3,9 km/h (1 Bft)
28.02.2014 10:00 4,2 C 79 % 1008,6 hPa 0,0 l/m 3,2 km/h (1 Bft) N 360 0,9 C 6,7 C 3,7 km/h (1 Bft)
28.02.2014 10:03 4,3 C 76 % 1008,6 hPa 0,0 l/m 3,2 km/h (1 Bft) N-NW 337 0,5 C 6,3 C 8,0 km/h (2 Bft)
28.02.2014 10:05 4,3 C 76 % 1008,6 hPa 0,0 l/m 3,2 km/h (1 Bft) N-NW 337 0,5 C 6,3 C 8,0 km/h (2 Bft)
28.02.2014 10:10 5,2 C 76 % 1008,6 hPa 0,0 l/m 4,7 km/h (1 Bft) N-NO 22 1,3 C 5,8 C 6,9 km/h (2 Bft)
28.02.2014 10:15 5,5 C 71 % 1008,6 hPa 0,0 l/m 5,8 km/h (2 Bft) N-NW 337 0,7 C 6,1 C 6,8 km/h (2 Bft)
28.02.2014 10:20 5,4 C 72 % 1008,6 hPa 0,0 l/m 6,0 km/h (2 Bft) N-NW 337 0,8 C 6,7 C 7,4 km/h (2 Bft)
28.02.2014 10:25 5,0 C 69 % 1008,6 hPa 0,0 l/m 6,1 km/h (2 Bft) N 360 -0,2 C 6,8 C 7,2 km/h (2 Bft)
28.02.2014 10:30 5,4 C 72 % 1008,2 hPa 0,0 l/m 5,8 km/h (2 Bft) W-NW 292 0,8 C 7,6 C 0,0 km/h (0 Bft)
28.02.2014 10:35 5,7 C 67 % 1008,2 hPa 0,0 l/m 4,2 km/h (1 Bft) N-NO 22 0,1 C 9,2 C 5,5 km/h (1 Bft)
28.02.2014 10:40 6,3 C 60 % 1008,2 hPa 0,0 l/m 4,0 km/h (1 Bft) N 360 -0,9 C 9,9 C 6,4 km/h (2 Bft)
28.02.2014 10:45 6,6 C 64 % 1008,2 hPa 0,0 l/m 5,3 km/h (1 Bft) W-NW 292 0,3 C 9,8 C 5,0 km/h (1 Bft)
28.02.2014 10:50 7,1 C 61 % 1008,1 hPa 0,0 l/m 6,1 km/h (2 Bft) NW 315 0,1 C 9,7 C 8,2 km/h (2 Bft)
28.02.2014 10:55 7,1 C 57 % 1008,1 hPa 0,0 l/m 6,1 km/h (2 Bft) W-NW 292 -0,8 C 9,3 C 5,0 km/h (1 Bft)
28.02.2014 11:00 7,0 C 59 % 1008,1 hPa 0,0 l/m 6,3 km/h (2 Bft) N-NW 337 -0,5 C 9,6 C 8,7 km/h (2 Bft)
28.02.2014 11:05 6,5 C 62 % 1008,1 hPa 0,0 l/m 5,8 km/h (2 Bft) N-NW 337 -0,2 C 9,8 C 4,7 km/h (1 Bft)
28.02.2014 11:10 6,9 C 64 % 1007,8 hPa 0,0 l/m 6,3 km/h (2 Bft) N-NW 337 0,6 C 9,7 C 6,9 km/h (2 Bft)
28.02.2014 11:15 7,3 C 59 % 1007,8 hPa 0,0 l/m 6,4 km/h (2 Bft) N 360 -0,2 C 9,8 C 11,1 km/h (2 Bft)
28.02.2014 11:20 7,9 C 61 % 1007,8 hPa 0,0 l/m 6,0 km/h (2 Bft) N-NW 337 0,9 C 10,2 C 6,6 km/h (2 Bft)
28.02.2014 11:25 7,4 C 56 % 1007,8 hPa 0,0 l/m 6,6 km/h (2 Bft) N-NW 337 -0,8 C 9,9 C 10,1 km/h (2 Bft)
28.02.2014 11:30 8,5 C 56 % 1007,6 hPa 0,0 l/m 7,1 km/h (2 Bft) N 360 0,2 C 9,1 C 7,6 km/h (2 Bft)
28.02.2014 11:35 8,0 C 56 % 1007,6 hPa 0,0 l/m 7,1 km/h (2 Bft) N 360 -0,2 C 9,4 C 8,5 km/h (2 Bft)
28.02.2014 11:40 8,3 C 57 % 1007,6 hPa 0,0 l/m 6,8 km/h (2 Bft) NO 45 0,3 C 9,2 C 9,8 km/h (2 Bft)
28.02.2014 11:45 8,6 C 56 % 1007,6 hPa 0,0 l/m 6,9 km/h (2 Bft) N-NW 337 0,3 C 8,9 C 7,4 km/h (2 Bft)
28.02.2014 11:50 8,6 C 51 % 1007,1 hPa 0,0 l/m 7,2 km/h (2 Bft) N-NW 337 -1,0 C 8,8 C 11,9 km/h (2 Bft)
28.02.2014 11:55 8,8 C 49 % 1007,1 hPa 0,0 l/m 6,9 km/h (2 Bft) N-NW 337 -1,3 C 9,3 C 8,0 km/h (2 Bft)
28.02.2014 12:00 9,1 C 49 % 1007,1 hPa 0,0 l/m 6,4 km/h (2 Bft) N-NW 337 -1,0 C 10,3 C 7,1 km/h (2 Bft)
28.02.2014 12:05 9,1 C 50 % 1007,1 hPa 0,0 l/m 6,3 km/h (2 Bft) W-NW 292 -0,8 C 10,7 C 6,6 km/h (2 Bft)
28.02.2014 12:10 9,2 C 51 % 1006,8 hPa 0,0 l/m 6,6 km/h (2 Bft) N 360 -0,4 C 10,5 C 9,0 km/h (2 Bft)
28.02.2014 12:15 9,2 C 51 % 1006,8 hPa 0,0 l/m 6,6 km/h (2 Bft) N 360 -0,4 C 10,5 C 9,0 km/h (2 Bft)
28.02.2014 12:20 8,9 C 50 % 1006,8 hPa 0,0 l/m 6,8 km/h (2 Bft) N 360 -0,9 C 10,6 C 4,3 km/h (1 Bft)
28.02.2014 12:25 9,0 C 49 % 1006,8 hPa 0,0 l/m 6,9 km/h (2 Bft) NO 45 -1,1 C 10,8 C 7,6 km/h (2 Bft)
28.02.2014 12:30 9,5 C 51 % 1006,3 hPa 0,0 l/m 6,6 km/h (2 Bft) N 360 -0,1 C 11,2 C 8,5 km/h (2 Bft)
28.02.2014 12:35 9,2 C 49 % 1006,3 hPa 0,0 l/m 6,6 km/h (2 Bft) NW 315 -0,9 C 11,2 C 6,4 km/h (2 Bft)
28.02.2014 12:40 9,3 C 48 % 1006,3 hPa 0,0 l/m 7,1 km/h (2 Bft) S-SO 157 -1,1 C 10,8 C 9,5 km/h (2 Bft)
28.02.2014 12:45 9,3 C 48 % 1006,3 hPa 0,0 l/m 7,9 km/h (2 Bft) N-NO 22 -1,1 C 9,9 C 10,8 km/h (2 Bft)
28.02.2014 12:50 8,9 C 49 % 1006,0 hPa 0,0 l/m 8,4 km/h (2 Bft) N 360 -1,2 C 9,2 C 9,0 km/h (2 Bft)
28.02.2014 12:55 9,3 C 49 % 1006,0 hPa 0,0 l/m 7,1 km/h (2 Bft) NO 45 -0,9 C 10,8 C 8,2 km/h (2 Bft)
28.02.2014 13:00 8,9 C 47 % 1006,0 hPa 0,0 l/m 7,6 km/h (2 Bft) W-NW 292 -1,8 C 10,4 C 9,2 km/h (2 Bft)
28.02.2014 13:05 9,0 C 48 % 1006,0 hPa 0,0 l/m 9,2 km/h (2 Bft) N 360 -1,4 C 8,8 C 12,6 km/h (3 Bft)
28.02.2014 13:10 9,5 C 50 % 1005,6 hPa 0,0 l/m 8,9 km/h (2 Bft) N-NW 337 -0,4 C 9,0 C 11,4 km/h (2 Bft)
28.02.2014 13:15 9,4 C 45 % 1005,6 hPa 0,0 l/m 8,4 km/h (2 Bft) N-NW 337 -1,9 C 9,6 C 12,9 km/h (3 Bft)
28.02.2014 13:20 9,6 C 46 % 1005,6 hPa 0,0 l/m 8,9 km/h (2 Bft) N-NW 337 -1,4 C 9,2 C 10,9 km/h (2 Bft)
28.02.2014 13:25 9,6 C 47 % 1005,6 hPa 0,0 l/m 9,3 km/h (2 Bft) N 360 -1,1 C 8,9 C 14,0 km/h (3 Bft)
28.02.2014 13:30 9,5 C 48 % 1005,0 hPa 0,0 l/m 8,5 km/h (2 Bft) N-NW 337 -1,0 C 9,7 C 7,2 km/h (2 Bft)
28.02.2014 13:35 9,9 C 48 % 1005,0 hPa 0,0 l/m 7,9 km/h (2 Bft) N-NW 337 -0,6 C 10,7 C 7,6 km/h (2 Bft)
28.02.2014 13:40 10,1 C 46 % 1005,0 hPa 0,0 l/m 7,6 km/h (2 Bft) NW 315 -1,0 C 11,2 C 7,1 km/h (2 Bft)
28.02.2014 13:45 10,1 C 45 % 1005,0 hPa 0,0 l/m 7,7 km/h (2 Bft) N-NW 337 -1,3 C 11,5 C 14,5 km/h (3 Bft)
28.02.2014 13:50 9,9 C 44 % 1004,7 hPa 0,0 l/m 7,9 km/h (2 Bft) N-NO 22 -1,8 C 11,2 C 8,4 km/h (2 Bft)
28.02.2014 13:55 10,0 C 41 % 1004,7 hPa 0,0 l/m 8,4 km/h (2 Bft) N 360 -2,6 C 10,7 C 15,1 km/h (3 Bft)
28.02.2014 14:00 10,3 C 43 % 1004,7 hPa 0,0 l/m 7,6 km/h (2 Bft) N-NW 337 -1,7 C 11,2 C 8,4 km/h (2 Bft)
28.02.2014 14:05 10,3 C 42 % 1004,7 hPa 0,0 l/m 7,1 km/h (2 Bft) N 360 -2,0 C 11,9 C 10,3 km/h (2 Bft)
28.02.2014 14:10 10,4 C 41 % 1004,1 hPa 0,0 l/m 7,1 km/h (2 Bft) N-NW 337 -2,3 C 12,4 C 8,9 km/h (2 Bft)
28.02.2014 14:15 10,2 C 42 % 1004,1 hPa 0,0 l/m 7,7 km/h (2 Bft) N 360 -2,1 C 11,5 C 5,3 km/h (1 Bft)
28.02.2014 14:20 10,5 C 42 % 1004,1 hPa 0,0 l/m 6,4 km/h (2 Bft) O-NO 67 -1,9 C 13,1 C 3,2 km/h (1 Bft)
28.02.2014 14:25 10,5 C 41 % 1004,1 hPa 0,0 l/m 5,3 km/h (1 Bft) N-NW 337 -2,2 C 13,6 C 9,2 km/h (2 Bft)
28.02.2014 14:30 10,8 C 40 % 1003,8 hPa 0,0 l/m 6,4 km/h (2 Bft) N-NW 337 -2,2 C 13,7 C 8,9 km/h (2 Bft)
28.02.2014 14:35 10,8 C 39 % 1003,8 hPa 0,0 l/m 7,2 km/h (2 Bft) N-NO 22 -2,6 C 13,1 C 7,2 km/h (2 Bft)
28.02.2014 14:40 10,8 C 37 % 1003,8 hPa 0,0 l/m 6,9 km/h (2 Bft) N 360 -3,3 C 13,3 C 9,2 km/h (2 Bft)
28.02.2014 14:45 10,7 C 37 % 1003,8 hPa 0,0 l/m 7,2 km/h (2 Bft) N-NW 337 -3,4 C 12,8 C 9,0 km/h (2 Bft)
28.02.2014 14:50 10,8 C 37 % 1003,6 hPa 0,0 l/m 7,2 km/h (2 Bft) N 360 -3,3 C 13,0 C 13,8 km/h (3 Bft)
28.02.2014 14:55 10,9 C 37 % 1003,6 hPa 0,0 l/m 6,6 km/h (2 Bft) N-NW 337 -3,2 C 13,6 C 7,4 km/h (2 Bft)
28.02.2014 15:00 11,0 C 33 % 1003,6 hPa 0,0 l/m 6,1 km/h (2 Bft) N 360 -4,6 C 14,1 C 4,8 km/h (1 Bft)
28.02.2014 15:03 10,8 C 34 % 1003,6 hPa 0,0 l/m 5,6 km/h (1 Bft) W-NW 292 -4,4 C 14,2 C 4,0 km/h (1 Bft)
28.02.2014 15:05 10,8 C 34 % 1003,6 hPa 0,0 l/m 5,6 km/h (1 Bft) W-NW 292 -4,4 C 14,2 C 4,0 km/h (1 Bft)
28.02.2014 15:10 10,9 C 35 % 1003,2 hPa 0,0 l/m 5,0 km/h (1 Bft) W-NW 292 -3,9 C 14,4 C 6,9 km/h (2 Bft)
28.02.2014 15:15 11,2 C 36 % 1003,2 hPa 0,0 l/m 4,3 km/h (1 Bft) N-NO 22 -3,3 C 14,7 C 4,3 km/h (1 Bft)
28.02.2014 15:20 11,5 C 37 % 1003,2 hPa 0,0 l/m 4,2 km/h (1 Bft) SW 225 -2,7 C 15,0 C 2,9 km/h (1 Bft)
28.02.2014 15:25 11,5 C 36 % 1003,2 hPa 0,0 l/m 4,2 km/h (1 Bft) N 360 -3,0 C 15,5 C 6,8 km/h (2 Bft)
28.02.2014 15:30 11,0 C 36 % 1002,9 hPa 0,0 l/m 3,7 km/h (1 Bft) W-NW 292 -3,5 C 15,2 C 6,8 km/h (2 Bft)
28.02.2014 15:35 10,4 C 36 % 1002,9 hPa 0,0 l/m 4,8 km/h (1 Bft) N-NW 337 -4,0 C 14,7 C 7,2 km/h (2 Bft)
28.02.2014 15:40 10,3 C 35 % 1002,9 hPa 0,0 l/m 5,5 km/h (1 Bft) N 360 -4,5 C 14,2 C 7,4 km/h (2 Bft)
28.02.2014 15:45 10,2 C 36 % 1002,9 hPa 0,0 l/m 4,8 km/h (1 Bft) N 360 -4,2 C 13,9 C 6,8 km/h (2 Bft)
28.02.2014 15:50 9,9 C 36 % 1002,5 hPa 0,0 l/m 4,5 km/h (1 Bft) W-NW 292 -4,5 C 13,7 C 2,9 km/h (1 Bft)
28.02.2014 15:55 9,8 C 35 % 1002,5 hPa 0,0 l/m 5,0 km/h (1 Bft) N 360 -4,9 C 13,3 C 6,6 km/h (2 Bft)
28.02.2014 16:00 9,5 C 37 % 1002,5 hPa 0,0 l/m 4,8 km/h (1 Bft) N-NW 337 -4,4 C 13,2 C 5,3 km/h (1 Bft)
28.02.2014 16:05 9,7 C 35 % 1002,5 hPa 0,0 l/m 4,8 km/h (1 Bft) N 360 -5,0 C 13,6 C 7,2 km/h (2 Bft)
28.02.2014 16:10 9,2 C 37 % 1002,4 hPa 0,0 l/m 4,8 km/h (1 Bft) N 360 -4,7 C 13,6 C 7,4 km/h (2 Bft)
28.02.2014 16:15 9,1 C 36 % 1002,4 hPa 0,0 l/m 4,7 km/h (1 Bft) NO 45 -5,2 C 13,8 C 6,9 km/h (2 Bft)
28.02.2014 16:20 8,8 C 38 % 1002,4 hPa 0,0 l/m 4,0 km/h (1 Bft) O 90 -4,7 C 13,8 C 4,8 km/h (1 Bft)
28.02.2014 16:25 8,8 C 38 % 1002,4 hPa 0,0 l/m 4,0 km/h (1 Bft) S 180 -4,7 C 13,8 C 2,4 km/h (1 Bft)
28.02.2014 16:30 8,3 C 39 % 1002,2 hPa 0,0 l/m 4,2 km/h (1 Bft) N-NO 22 -4,8 C 12,6 C 6,1 km/h (2 Bft)
28.02.2014 16:35 8,1 C 39 % 1002,2 hPa 0,0 l/m 3,9 km/h (1 Bft) N 360 -5,0 C 11,5 C 8,7 km/h (2 Bft)
28.02.2014 16:40 7,6 C 40 % 1002,2 hPa 0,0 l/m 3,7 km/h (1 Bft) W-NW 292 -5,1 C 10,8 C 1,8 km/h (1 Bft)
28.02.2014 16:45 7,5 C 40 % 1002,2 hPa 0,0 l/m 3,2 km/h (1 Bft) N 360 -5,2 C 10,8 C 4,2 km/h (1 Bft)
28.02.2014 16:50 7,4 C 40 % 1002,0 hPa 0,0 l/m 2,1 km/h (1 Bft) NO 45 -5,3 C 11,2 C 1,9 km/h (1 Bft)
28.02.2014 16:55 7,2 C 41 % 1002,0 hPa 0,0 l/m 1,3 km/h (1 Bft) W-NW 292 -5,2 C 10,8 C 1,9 km/h (1 Bft)
28.02.2014 17:00 6,9 C 42 % 1002,0 hPa 0,0 l/m 0,6 km/h (0 Bft) NO 45 -5,1 C 10,0 C 2,1 km/h (1 Bft)
28.02.2014 17:05 6,9 C 42 % 1002,0 hPa 0,0 l/m 1,0 km/h (0 Bft) N 360 -5,1 C 9,3 C 3,1 km/h (1 Bft)
28.02.2014 17:10 6,5 C 43 % 1001,9 hPa 0,0 l/m 2,1 km/h (1 Bft) N-NO 22 -5,2 C 8,7 C 0,0 km/h (0 Bft)
28.02.2014 17:15 6,3 C 43 % 1001,9 hPa 0,0 l/m 1,8 km/h (1 Bft) O-SO 112 -5,3 C 8,3 C 4,0 km/h (1 Bft)
28.02.2014 17:20 5,9 C 46 % 1001,9 hPa 0,0 l/m 1,0 km/h (0 Bft) SO 135 -4,8 C 8,2 C 3,4 km/h (1 Bft)
28.02.2014 17:25 5,8 C 46 % 1001,9 hPa 0,0 l/m 1,3 km/h (1 Bft) S-SW 202 -4,9 C 8,2 C 1,9 km/h (1 Bft)
28.02.2014 17:30 5,7 C 46 % 1001,8 hPa 0,0 l/m 1,8 km/h (1 Bft) NO 45 -5,0 C 8,2 C 2,1 km/h (1 Bft)
28.02.2014 17:35 5,7 C 46 % 1001,8 hPa 0,0 l/m 1,6 km/h (1 Bft) O-NO 67 -5,0 C 7,8 C 2,9 km/h (1 Bft)
28.02.2014 17:40 5,4 C 46 % 1001,8 hPa 0,0 l/m 1,0 km/h (0 Bft) N-NO 22 -5,3 C 7,1 C 1,6 km/h (1 Bft)
28.02.2014 17:45 5,3 C 46 % 1001,8 hPa 0,0 l/m 0,8 km/h (0 Bft) NO 45 -5,4 C 7,0 C 2,1 km/h (1 Bft)
28.02.2014 17:50 5,1 C 47 % 1001,6 hPa 0,0 l/m 1,1 km/h (1 Bft) N-NO 22 -5,3 C 6,5 C 0,0 km/h (0 Bft)
28.02.2014 17:55 4,9 C 47 % 1001,6 hPa 0,0 l/m 1,1 km/h (1 Bft) NO 45 -5,4 C 6,0 C 0,0 km/h (0 Bft)
28.02.2014 18:00 4,7 C 47 % 1001,6 hPa 0,0 l/m 0,6 km/h (0 Bft) NO 45 -5,6 C 5,4 C 0,0 km/h (0 Bft)
28.02.2014 18:05 4,5 C 47 % 1001,6 hPa 0,0 l/m 0,8 km/h (0 Bft) NO 45 -5,8 C 5,1 C 3,9 km/h (1 Bft)
28.02.2014 18:10 4,4 C 47 % 1001,9 hPa 0,0 l/m 1,8 km/h (1 Bft) NO 45 -5,9 C 4,7 C 2,1 km/h (1 Bft)
28.02.2014 18:15 4,1 C 47 % 1001,9 hPa 0,0 l/m 2,3 km/h (1 Bft) O 90 -6,2 C 4,3 C 1,9 km/h (1 Bft)
28.02.2014 18:20 3,7 C 48 % 1001,9 hPa 0,0 l/m 1,4 km/h (1 Bft) O-NO 67 -6,3 C 3,9 C 1,8 km/h (1 Bft)
28.02.2014 18:25 3,3 C 48 % 1001,9 hPa 0,0 l/m 0,8 km/h (0 Bft) O 90 -6,6 C 3,6 C 0,0 km/h (0 Bft)
28.02.2014 18:30 2,8 C 51 % 1001,9 hPa 0,0 l/m 0,2 km/h (0 Bft) NO 45 -6,3 C 3,0 C 1,8 km/h (1 Bft)
28.02.2014 18:35 2,6 C 52 % 1001,9 hPa 0,0 l/m 0,2 km/h (0 Bft) O-NO 67 -6,2 C 2,6 C 2,9 km/h (1 Bft)
28.02.2014 18:40 3,0 C 51 % 1001,9 hPa 0,0 l/m 1,1 km/h (1 Bft) O 90 -6,1 C 2,3 C 4,0 km/h (1 Bft)
28.02.2014 18:45 2,8 C 53 % 1001,9 hPa 0,0 l/m 1,4 km/h (1 Bft) O 90 -5,8 C 2,1 C 0,0 km/h (0 Bft)
28.02.2014 18:50 3,0 C 51 % 1001,9 hPa 0,0 l/m 2,3 km/h (1 Bft) O-NO 67 -6,1 C 2,0 C 3,2 km/h (1 Bft)
28.02.2014 18:55 3,0 C 51 % 1001,9 hPa 0,0 l/m 2,7 km/h (1 Bft) O-NO 67 -6,1 C 1,8 C 4,2 km/h (1 Bft)
28.02.2014 19:00 2,9 C 52 % 1001,9 hPa 0,0 l/m 3,5 km/h (1 Bft) O-SO 112 -6,0 C 1,2 C 6,8 km/h (2 Bft)
28.02.2014 19:05 3,1 C 50 % 1001,9 hPa 0,0 l/m 4,3 km/h (1 Bft) O 90 -6,3 C 0,7 C 5,1 km/h (1 Bft)
28.02.2014 19:10 3,2 C 49 % 1002,0 hPa 0,0 l/m 5,3 km/h (1 Bft) O-SO 112 -6,5 C 0,2 C 6,3 km/h (2 Bft)
28.02.2014 19:15 2,9 C 51 % 1002,0 hPa 0,0 l/m 5,0 km/h (1 Bft) O-NO 67 -6,2 C 0,4 C 2,1 km/h (1 Bft)
28.02.2014 19:20 1,6 C 55 % 1002,0 hPa 0,0 l/m 2,4 km/h (1 Bft) S 180 -6,4 C 1,6 C 0,0 km/h (0 Bft)
28.02.2014 19:25 1,1 C 55 % 1002,0 hPa 0,0 l/m 1,0 km/h (0 Bft) NO 45 -6,9 C 1,2 C 0,0 km/h (0 Bft)
28.02.2014 19:30 1,4 C 55 % 1001,9 hPa 0,0 l/m 0,3 km/h (0 Bft) NO 45 -6,6 C 0,8 C 1,6 km/h (1 Bft)
28.02.2014 19:35 0,7 C 56 % 1001,9 hPa 0,0 l/m 0,0 km/h (0 Bft) N-NO 22 -7,1 C 0,6 C 0,0 km/h (0 Bft)
28.02.2014 19:40 0,2 C 57 % 1001,9 hPa 0,0 l/m 0,2 km/h (0 Bft) NO 45 -7,3 C 0,0 C 0,0 km/h (0 Bft)
28.02.2014 19:45 -0,1 C 57 % 1001,9 hPa 0,0 l/m 0,0 km/h (0 Bft) NO 45 -7,6 C -0,2 C 0,0 km/h (0 Bft)
28.02.2014 19:50 -0,3 C 58 % 1001,8 hPa 0,0 l/m 0,0 km/h (0 Bft) NO 45 -7,5 C -0,6 C 0,0 km/h (0 Bft)
28.02.2014 19:55 -0,4 C 59 % 1001,8 hPa 0,0 l/m 0,0 km/h (0 Bft) N 360 -7,4 C -0,8 C 0,0 km/h (0 Bft)
28.02.2014 20:00 -0,5 C 59 % 1001,8 hPa 0,0 l/m 0,0 km/h (0 Bft) NO 45 -7,5 C -1,1 C 0,0 km/h (0 Bft)
28.02.2014 20:03 -0,2 C 60 % 1001,8 hPa 0,0 l/m 0,0 km/h (0 Bft) N 360 -7,0 C -0,9 C 0,0 km/h (0 Bft)
28.02.2014 20:05 -0,2 C 60 % 1001,8 hPa 0,0 l/m 0,0 km/h (0 Bft) N 360 -7,0 C -0,9 C 0,0 km/h (0 Bft)
28.02.2014 20:10 -0,7 C 60 % 1001,9 hPa 0,0 l/m 0,0 km/h (0 Bft) NO 45 -7,5 C -1,1 C 0,0 km/h (0 Bft)
28.02.2014 20:15 -0,3 C 61 % 1001,9 hPa 0,0 l/m 0,2 km/h (0 Bft) NO 45 -6,9 C -1,1 C 1,9 km/h (1 Bft)
28.02.2014 20:20 0,3 C 61 % 1001,9 hPa 0,0 l/m 1,1 km/h (1 Bft) O-NO 67 -6,3 C -0,5 C 0,0 km/h (0 Bft)
28.02.2014 20:25 -0,4 C 62 % 1001,9 hPa 0,0 l/m 1,3 km/h (1 Bft) S 180 -6,8 C -0,4 C 0,0 km/h (0 Bft)
28.02.2014 20:30 -0,8 C 63 % 1001,8 hPa 0,0 l/m 0,5 km/h (0 Bft) W-SW 247 -6,9 C -0,6 C 0,0 km/h (0 Bft)
28.02.2014 20:35 -0,7 C 63 % 1001,8 hPa 0,0 l/m 0,3 km/h (0 Bft) W-SW 247 -6,8 C -1,0 C 0,0 km/h (0 Bft)
28.02.2014 20:40 -0,8 C 64 % 1001,8 hPa 0,0 l/m 0,0 km/h (0 Bft) W-SW 247 -6,7 C -1,3 C 0,0 km/h (0 Bft)
28.02.2014 20:45 -0,9 C 63 % 1001,8 hPa 0,0 l/m 0,0 km/h (0 Bft) W-SW 247 -7,0 C -1,5 C 0,0 km/h (0 Bft)
28.02.2014 20:50 -0,4 C 65 % 1001,4 hPa 0,0 l/m 1,1 km/h (1 Bft) NO 45 -6,2 C -1,3 C 1,8 km/h (1 Bft)
28.02.2014 20:55 -0,7 C 65 % 1001,4 hPa 0,0 l/m 1,3 km/h (1 Bft) S-SO 157 -6,4 C -1,3 C 0,0 km/h (0 Bft)
28.02.2014 21:00 -1,4 C 65 % 1001,4 hPa 0,0 l/m 0,2 km/h (0 Bft) S-SO 157 -7,1 C -1,7 C 0,0 km/h (0 Bft)
28.02.2014 21:05 -1,7 C 66 % 1001,4 hPa 0,0 l/m 0,0 km/h (0 Bft) S-SO 157 -7,2 C -2,0 C 0,0 km/h (0 Bft)
28.02.2014 21:10 -1,4 C 66 % 1001,6 hPa 0,0 l/m 0,2 km/h (0 Bft) O-SO 112 -6,9 C -2,3 C 0,0 km/h (0 Bft)
28.02.2014 21:15 -1,5 C 67 % 1001,6 hPa 0,0 l/m 0,3 km/h (0 Bft) NO 45 -6,8 C -2,3 C 0,0 km/h (0 Bft)
28.02.2014 21:20 -1,5 C 67 % 1001,6 hPa 0,0 l/m 0,3 km/h (0 Bft) NO 45 -6,8 C -2,4 C 0,0 km/h (0 Bft)
28.02.2014 21:25 -1,6 C 67 % 1001,6 hPa 0,0 l/m 0,2 km/h (0 Bft) O 90 -6,9 C -2,4 C 3,1 km/h (1 Bft)
28.02.2014 21:30 0,8 C 64 % 1001,6 hPa 0,0 l/m 1,8 km/h (1 Bft) O 90 -5,2 C -1,6 C 5,5 km/h (1 Bft)
28.02.2014 21:35 1,1 C 59 % 1001,6 hPa 0,0 l/m 4,0 km/h (1 Bft) O-SO 112 -6,0 C -2,1 C 6,3 km/h (2 Bft)
28.02.2014 21:40 0,8 C 59 % 1001,6 hPa 0,0 l/m 5,0 km/h (1 Bft) N-NO 22 -6,3 C -1,4 C 3,9 km/h (1 Bft)
28.02.2014 21:45 1,0 C 59 % 1001,6 hPa 0,0 l/m 4,8 km/h (1 Bft) NO 45 -6,1 C -0,9 C 5,5 km/h (1 Bft)
28.02.2014 21:50 1,4 C 59 % 1001,8 hPa 0,0 l/m 4,3 km/h (1 Bft) O-NO 67 -5,7 C -0,3 C 2,9 km/h (1 Bft)
28.02.2014 21:55 0,7 C 59 % 1001,8 hPa 0,0 l/m 3,2 km/h (1 Bft) NO 45 -6,4 C 0,3 C 4,2 km/h (1 Bft)
28.02.2014 22:00 -0,1 C 59 % 1001,8 hPa 0,0 l/m 1,1 km/h (1 Bft) W-SW 247 -7,1 C 0,3 C 0,0 km/h (0 Bft)
28.02.2014 22:05 -0,8 C 61 % 1001,8 hPa 0,0 l/m 0,6 km/h (0 Bft) S 180 -7,4 C -0,2 C 0,0 km/h (0 Bft)
28.02.2014 22:10 -0,2 C 62 % 1002,0 hPa 0,0 l/m 1,9 km/h (1 Bft) O 90 -6,6 C -0,7 C 4,0 km/h (1 Bft)
28.02.2014 22:15 0,8 C 61 % 1002,0 hPa 0,0 l/m 2,7 km/h (1 Bft) O 90 -5,8 C -0,9 C 1,9 km/h (1 Bft)
28.02.2014 22:20 -0,3 C 60 % 1002,0 hPa 0,0 l/m 1,1 km/h (1 Bft) O-SO 112 -7,1 C -0,6 C 0,0 km/h (0 Bft)
28.02.2014 22:25 -0,9 C 61 % 1002,0 hPa 0,0 l/m 0,8 km/h (0 Bft) O-SO 112 -7,5 C -0,9 C 6,4 km/h (2 Bft)
28.02.2014 22:30 0,3 C 62 % 1001,9 hPa 0,0 l/m 3,4 km/h (1 Bft) O-SO 112 -6,1 C -1,4 C 4,3 km/h (1 Bft)
28.02.2014 22:35 0,1 C 61 % 1001,9 hPa 0,0 l/m 3,7 km/h (1 Bft) O 90 -6,5 C -1,4 C 2,9 km/h (1 Bft)
28.02.2014 22:40 0,4 C 61 % 1001,9 hPa 0,0 l/m 2,4 km/h (1 Bft) O 90 -6,2 C -0,6 C 3,2 km/h (1 Bft)
28.02.2014 22:45 0,3 C 60 % 1001,9 hPa 0,0 l/m 1,9 km/h (1 Bft) O 90 -6,5 C -0,5 C 0,0 km/h (0 Bft)
28.02.2014 22:50 -0,8 C 62 % 1001,9 hPa 0,0 l/m 1,0 km/h (0 Bft) O 90 -7,1 C -0,8 C 1,8 km/h (1 Bft)
28.02.2014 22:55 -0,7 C 63 % 1001,9 hPa 0,0 l/m 0,6 km/h (0 Bft) O 90 -6,8 C -0,9 C 0,0 km/h (0 Bft)
28.02.2014 23:00 -0,3 C 63 % 1001,9 hPa 0,0 l/m 0,6 km/h (0 Bft) O 90 -6,5 C -1,0 C 1,8 km/h (1 Bft)
28.02.2014 23:05 -0,2 C 62 % 1001,9 hPa 0,0 l/m 0,6 km/h (0 Bft) NO 45 -6,6 C -0,9 C 2,3 km/h (1 Bft)
28.02.2014 23:10 0,1 C 62 % 1001,9 hPa 0,0 l/m 1,0 km/h (0 Bft) NO 45 -6,3 C -0,6 C 0,0 km/h (0 Bft)
28.02.2014 23:15 0,1 C 61 % 1001,9 hPa 0,0 l/m 1,1 km/h (1 Bft) O-NO 67 -6,5 C -0,5 C 2,4 km/h (1 Bft)
28.02.2014 23:20 -0,2 C 61 % 1001,9 hPa 0,0 l/m 0,3 km/h (0 Bft) NO 45 -6,8 C -0,5 C 0,0 km/h (0 Bft)
28.02.2014 23:25 -0,6 C 62 % 1001,9 hPa 0,0 l/m 0,3 km/h (0 Bft) W-NW 292 -7,0 C -0,7 C 2,3 km/h (1 Bft)
28.02.2014 23:30 -1,1 C 62 % 1001,9 hPa 0,0 l/m 0,2 km/h (0 Bft) W-NW 292 -7,4 C -1,0 C 0,0 km/h (0 Bft)
28.02.2014 23:35 -1,3 C 63 % 1001,9 hPa 0,0 l/m 0,2 km/h (0 Bft) NW 315 -7,4 C -1,3 C 0,0 km/h (0 Bft)
28.02.2014 23:40 -1,5 C 64 % 1001,9 hPa 0,0 l/m 0,0 km/h (0 Bft) N 360 -7,4 C -1,6 C 0,0 km/h (0 Bft)
28.02.2014 23:45 -1,6 C 65 % 1001,9 hPa 0,0 l/m 0,0 km/h (0 Bft) W-SW 247 -7,3 C -1,6 C 0,0 km/h (0 Bft)
28.02.2014 23:50 -1,8 C 65 % 1001,9 hPa 0,0 l/m 0,0 km/h (0 Bft) W-SW 247 -7,5 C -1,8 C 0,0 km/h (0 Bft)
28.02.2014 23:55 -1,9 C 66 % 1001,9 hPa 0,0 l/m 0,0 km/h (0 Bft) W 270 -7,4 C -1,8 C 0,0 km/h (0 Bft)
_ Min-Zeit 23:55 15:00 21:05 - 23:55 - - 19:45 04:10 23:55
Minimum _ -1,9 C 33 % 1001,4 hPa - 0,0 km/h (0 Bft) - - -7,6 C -8,3 C 0,0 km/h (0 Bft)
_ Max-Zeit 15:25 08:55 01:45 23:55 04:10 - - 09:45 15:25 04:10
Maximum _ 11,5 C 96 % 1012,5 hPa 0,0 l/m 12,7 km/h
S (3 Bft)
- - 2,4 C 15,5 C 25,9 km/h
S (4 Bft)
Durchschnitt _ 3,2 C 70 % 1006,5 hPa #0,0 l/m 3,6 km/h (1 Bft) SO - -2,6 C 3,4 C 4,6 km/h (1 Bft)